This is the latest recevied weather packets stored in our database for station/object AC1IX. If no packets are shown the sender has not sent any weather packets the latest 10 day(s).
| Time | Temp. | Humidity | Pressure | Rain* | Wind** | Luminosity | Snow |
|---|---|---|---|---|---|---|---|
| 1778012138 | 26.67° C | 43% | 1005.6 hPa | 0 mm | - | 334 W/m² | - |
| 1778011836 | 26.67° C | 42% | 1005.6 hPa | 0 mm | - | 163 W/m² | - |
| 1778011534 | 26.67° C | 42% | 1005.3 hPa | 0 mm | - | 170 W/m² | - |
| 1778011230 | 26.67° C | 42% | 1005.4 hPa | 0 mm | - | 169 W/m² | - |
| 1778010926 | 26.11° C | 42% | 1005.8 hPa | 0 mm | - | 165 W/m² | - |
| 1778010624 | 26.11° C | 43% | 1005.8 hPa | 0 mm | - | 174 W/m² | - |
| 1778010321 | 25.56° C | 42% | 1005.8 hPa | 0 mm | - | 200 W/m² | - |
| 1778010016 | 26.11° C | 43% | 1005.7 hPa | 0 mm | - | 137 W/m² | - |
| 1778009714 | 26.67° C | 41% | 1005.6 hPa | 0 mm | - | 161 W/m² | - |
| 1778009411 | 26.67° C | 41% | 1005.9 hPa | 0 mm | - | 184 W/m² | - |
| 1778009109 | 26.11° C | 41% | 1005.6 hPa | 0 mm | - | 184 W/m² | - |
| 1778008807 | 26.67° C | 41% | 1005.7 hPa | 0 mm | - | 253 W/m² | - |
| 1778008505 | 27.78° C | 40% | 1005.7 hPa | 0 mm | - | 229 W/m² | - |
| 1778008202 | 27.22° C | 39% | 1005.9 hPa | 0 mm | - | 638 W/m² | - |
| 1778007897 | 27.22° C | 40% | 1005.6 hPa | 0 mm | - | 275 W/m² | - |
| 1778007593 | 27.22° C | 40% | 1006.1 hPa | 0 mm | - | 192 W/m² | - |
| 1778007290 | 27.78° C | 37% | 1006 hPa | 0 mm | - | 604 W/m² | - |
| 1778006986 | 28.33° C | 38% | 1006 hPa | 0 mm | - | 704 W/m² | - |
| 1778006683 | 28.89° C | 39% | 1006.1 hPa | 0 mm | - | 525 W/m² | - |
| 1778006379 | 27.78° C | 38% | 1005.7 hPa | 0 mm | - | 658 W/m² | - |
| 1778006077 | 27.78° C | 40% | 1006.1 hPa | 0 mm | - | 492 W/m² | - |
| 1778005773 | 27.78° C | 42% | 1006.2 hPa | 0 mm | - | 635 W/m² | - |
| 1778005471 | 27.22° C | 40% | 1006.4 hPa | 0 mm | - | 608 W/m² | - |
| 1778005166 | 27.22° C | 39% | 1006.3 hPa | 0 mm | - | 587 W/m² | - |
| 1778004864 | 27.22° C | 40% | 1006.2 hPa | 0 mm | - | 789 W/m² | - |
* Rain latest hour (hover to see other rain measurements)
** Current wind speed in m/s (hover to see current wind gust speed)